Time,TemperatureF,DewpointF,PressureIn,WindDirection,WindDirectionDegrees,WindSpeedMPH,WindSpeedGustMPH,Humidity,HourlyPrecipIn,Conditions,Clouds,dailyrainin,SolarRadiationWatts/m^2,SoftwareType,DateUTC
2013-02-11 00:00:00,27.2,26.0,29.47,NW,304,19.0,26.0,95,0.00,,---,0.04,0.00,VWS V14.01,2013-02-11 06:00:00,
2013-02-11 00:05:00,27.1,25.9,29.47,WNW,295,17.0,27.0,95,0.00,,---,0.00,0.00,VWS V14.01,2013-02-11 06:05:00,
2013-02-11 00:10:00,27.1,25.9,29.47,WNW,303,19.0,27.0,95,0.00,,---,0.00,0.00,VWS V14.01,2013-02-11 06:10:00,
2013-02-11 00:15:00,27.0,25.8,29.47,NW,304,18.0,28.0,95,0.00,,---,0.00,0.00,VWS V14.01,2013-02-11 06:15:00,
2013-02-11 00:20:00,27.0,25.8,29.48,WNW,303,20.0,25.0,95,0.00,,---,0.00,0.00,VWS V14.01,2013-02-11 06:20:00,
2013-02-11 00:25:00,26.9,25.7,29.49,NW,304,19.0,27.0,95,0.00,,---,0.00,0.00,VWS V14.01,2013-02-11 06:25:00,
2013-02-11 00:30:00,26.8,25.6,29.49,WNW,292,23.0,27.0,95,0.00,,---,0.00,0.00,VWS V14.01,2013-02-11 06:30:00,
2013-02-11 00:35:00,26.7,25.5,29.49,WNW,295,22.0,23.0,95,0.00,,---,0.00,0.00,VWS V14.01,2013-02-11 06:35:00,
2013-02-11 00:40:00,26.7,25.2,29.50,WNW,299,24.0,31.0,94,0.00,,---,0.00,0.00,VWS V14.01,2013-02-11 06:40:00,
2013-02-11 00:45:00,26.6,25.1,29.50,NW,304,25.0,31.0,94,0.00,,---,0.00,0.00,VWS V14.01,2013-02-11 06:45:00,
2013-02-11 00:50:00,26.5,25.0,29.51,WNW,295,19.0,26.0,94,0.00,,---,0.00,0.00,VWS V14.01,2013-02-11 06:50:00,
2013-02-11 00:55:00,26.5,25.3,29.51,West,281,23.0,28.0,95,0.00,,---,0.00,0.00,VWS V14.01,2013-02-11 06:55:00,
2013-02-11 01:00:00,26.4,25.2,29.51,NW,309,21.0,31.0,95,0.00,,---,0.00,0.00,VWS V14.01,2013-02-11 07:00:00,
2013-02-11 01:05:00,26.4,24.9,29.51,WNW,298,18.0,29.0,94,0.00,,---,0.00,0.00,VWS V14.01,2013-02-11 07:05:00,
2013-02-11 01:10:00,26.3,25.1,29.52,WNW,303,17.0,29.0,95,0.00,,---,0.00,0.00,VWS V14.01,2013-02-11 07:10:00,
2013-02-11 01:15:00,26.3,25.1,29.52,WNW,292,21.0,29.0,95,0.00,,---,0.00,0.00,VWS V14.01,2013-02-11 07:15:00,
2013-02-11 01:20:00,26.2,25.0,29.52,WNW,300,25.0,27.0,95,0.00,,---,0.00,0.00,VWS V14.01,2013-02-11 07:20:00,
2013-02-11 01:25:00,26.2,25.0,29.52,WNW,303,24.0,31.0,95,0.00,,---,0.00,0.00,VWS V14.01,2013-02-11 07:25:00,
2013-02-11 01:30:00,26.2,25.0,29.53,WNW,296,21.0,31.0,95,0.00,,---,0.00,0.00,VWS V14.01,2013-02-11 07:30:00,
2013-02-11 01:35:00,26.2,25.0,29.53,WNW,299,26.0,27.0,95,0.00,,---,0.00,0.00,VWS V14.01,2013-02-11 07:35:00,
2013-02-11 01:40:00,26.2,25.0,29.54,NW,304,27.0,30.0,95,0.00,,---,0.00,0.00,VWS V14.01,2013-02-11 07:40:00,
2013-02-11 01:45:00,26.1,24.9,29.54,NW,307,27.0,31.0,95,0.00,,---,0.00,0.00,VWS V14.01,2013-02-11 07:45:00,
2013-02-11 01:50:00,26.1,24.6,29.54,WNW,290,20.0,33.0,94,0.00,,---,0.00,0.00,VWS V14.01,2013-02-11 07:50:00,
2013-02-11 01:55:00,26.0,24.5,29.55,WNW,300,25.0,33.0,94,0.00,,---,0.00,0.00,VWS V14.01,2013-02-11 07:55:00,
2013-02-11 02:00:00,25.9,24.4,29.55,NW,306,21.0,33.0,94,0.00,,---,0.00,0.00,VWS V14.01,2013-02-11 08:00:00,
2013-02-11 02:05:00,25.8,24.3,29.56,NW,308,33.0,35.0,94,0.00,,---,0.00,0.00,VWS V14.01,2013-02-11 08:05:00,
2013-02-11 02:10:00,25.8,24.3,29.56,WNW,301,20.0,35.0,94,0.00,,---,0.00,0.00,VWS V14.01,2013-02-11 08:10:00,
2013-02-11 02:15:00,25.7,24.2,29.56,WNW,298,22.0,35.0,94,0.00,,---,0.00,0.00,VWS V14.01,2013-02-11 08:15:00,
2013-02-11 02:20:00,25.6,24.1,29.56,WNW,300,25.0,32.0,94,0.00,,---,0.00,0.00,VWS V14.01,2013-02-11 08:20:00,
2013-02-11 02:25:00,25.5,24.0,29.57,NW,308,21.0,33.0,94,0.00,,---,0.00,0.00,VWS V14.01,2013-02-11 08:25:00,
2013-02-11 02:30:00,25.4,23.9,29.57,NW,304,28.0,33.0,94,0.00,,---,0.00,0.00,VWS V14.01,2013-02-11 08:30:00,
2013-02-11 02:35:00,25.4,23.9,29.58,NW,304,19.0,30.0,94,0.00,,---,0.00,0.00,VWS V14.01,2013-02-11 08:35:00,
2013-02-11 02:40:00,25.3,23.8,29.58,NW,304,24.0,33.0,94,0.00,,---,0.00,0.00,VWS V14.01,2013-02-11 08:40:00,
2013-02-11 02:45:00,25.3,23.8,29.58,WNW,303,23.0,33.0,94,0.00,,---,0.00,0.00,VWS V14.01,2013-02-11 08:45:00,
2013-02-11 02:50:00,25.2,23.7,29.59,WNW,297,27.0,27.0,94,0.00,,---,0.00,0.00,VWS V14.01,2013-02-11 08:50:00,
2013-02-11 02:55:00,25.2,23.7,29.60,WNW,299,33.0,33.0,94,0.00,,---,0.00,0.00,VWS V14.01,2013-02-11 08:55:00,
2013-02-11 03:00:00,25.1,23.6,29.59,WNW,292,24.0,33.0,94,0.00,,---,0.00,0.00,VWS V14.01,2013-02-11 09:00:00,
2013-02-11 03:05:00,25.1,23.6,29.60,WNW,296,33.0,33.0,94,0.00,,---,0.00,0.00,VWS V14.01,2013-02-11 09:05:00,
2013-02-11 03:10:00,25.0,23.5,29.61,WNW,301,31.0,33.0,94,0.00,,---,0.00,0.00,VWS V14.01,2013-02-11 09:10:00,
2013-02-11 03:15:00,24.9,23.4,29.61,WNW,298,31.0,33.0,94,0.00,,---,0.00,0.00,VWS V14.01,2013-02-11 09:15:00,
2013-02-11 03:20:00,24.9,23.2,29.61,NW,308,28.0,33.0,93,0.00,,---,0.00,0.00,VWS V14.01,2013-02-11 09:20:00,
2013-02-11 03:25:00,24.9,23.2,29.62,WNW,296,27.0,33.0,93,0.00,,---,0.00,0.00,VWS V14.01,2013-02-11 09:25:00,
2013-02-11 03:30:00,24.9,23.2,29.62,NW,307,22.0,33.0,93,0.00,,---,0.00,0.00,VWS V14.01,2013-02-11 09:30:00,
2013-02-11 03:35:00,24.8,23.3,29.62,WNW,302,25.0,32.0,94,0.00,,---,0.00,0.00,VWS V14.01,2013-02-11 09:35:00,
2013-02-11 03:40:00,24.8,23.3,29.63,WNW,302,24.0,35.0,94,0.00,,---,0.00,0.00,VWS V14.01,2013-02-11 09:40:00,
2013-02-11 03:45:00,24.8,23.1,29.64,NW,309,25.0,35.0,93,0.00,,---,0.00,0.00,VWS V14.01,2013-02-11 09:45:00,
2013-02-11 03:50:00,24.8,23.1,29.64,NW,307,24.0,32.0,93,0.00,,---,0.00,0.00,VWS V14.01,2013-02-11 09:50:00,
2013-02-11 03:55:00,24.8,23.1,29.64,WNW,298,29.0,33.0,93,0.00,,---,0.00,0.00,VWS V14.01,2013-02-11 09:55:00,
2013-02-11 04:00:00,24.8,23.1,29.65,WNW,302,30.0,34.0,93,0.00,,---,0.00,0.00,VWS V14.01,2013-02-11 10:00:00,
2013-02-11 04:05:00,24.7,23.0,29.65,WNW,302,30.0,31.0,93,0.00,,---,0.00,0.00,VWS V14.01,2013-02-11 10:05:00,
2013-02-11 04:10:00,24.6,22.9,29.66,WNW,303,29.0,35.0,93,0.00,,---,0.00,0.00,VWS V14.01,2013-02-11 10:10:00,
2013-02-11 04:15:00,24.6,22.9,29.66,NW,306,31.0,35.0,93,0.00,,---,0.00,0.00,VWS V14.01,2013-02-11 10:15:00,
2013-02-11 04:20:00,24.6,22.9,29.66,WNW,300,30.0,36.0,93,0.00,,---,0.00,0.00,VWS V14.01,2013-02-11 10:20:00,
2013-02-11 04:25:00,24.6,22.9,29.67,WNW,301,27.0,36.0,93,0.00,,---,0.00,0.00,VWS V14.01,2013-02-11 10:25:00,
2013-02-11 04:30:00,24.5,22.8,29.67,NW,304,23.0,36.0,93,0.00,,---,0.00,0.00,VWS V14.01,2013-02-11 10:30:00,
2013-02-11 04:35:00,24.5,22.8,29.67,NW,304,24.0,27.0,93,0.00,,---,0.00,0.00,VWS V14.01,2013-02-11 10:35:00,
2013-02-11 04:40:00,24.5,22.8,29.68,NW,304,30.0,33.0,93,0.00,,---,0.00,0.00,VWS V14.01,2013-02-11 10:40:00,
2013-02-11 04:45:00,24.5,22.8,29.68,WNW,302,25.0,34.0,93,0.00,,---,0.00,0.00,VWS V14.01,2013-02-11 10:45:00,
2013-02-11 04:50:00,24.4,22.7,29.69,WNW,300,29.0,30.0,93,0.00,,---,0.00,0.00,VWS V14.01,2013-02-11 10:50:00,
2013-02-11 04:55:00,24.3,22.6,29.69,West,281,23.0,33.0,93,0.00,,---,0.00,0.00,VWS V14.01,2013-02-11 10:55:00,
2013-02-11 05:00:00,24.3,22.6,29.70,WNW,303,25.0,33.0,93,0.00,,---,0.00,0.00,VWS V14.01,2013-02-11 11:00:00,
2013-02-11 05:05:00,24.0,22.0,29.70,WNW,298,33.0,33.0,92,0.00,,---,0.00,0.00,VWS V14.01,2013-02-11 11:05:00,
2013-02-11 05:10:00,23.9,22.2,29.71,NW,311,23.0,35.0,93,0.00,,---,0.00,0.00,VWS V14.01,2013-02-11 11:10:00,
2013-02-11 05:15:00,23.6,21.6,29.71,WNW,297,22.0,36.0,92,0.00,,---,0.00,0.00,VWS V14.01,2013-02-11 11:15:00,
2013-02-11 05:20:00,23.4,21.4,29.72,WNW,296,22.0,31.0,92,0.00,,---,0.00,0.00,VWS V14.01,2013-02-11 11:20:00,
2013-02-11 05:25:00,23.2,21.2,29.72,NW,304,19.0,31.0,92,0.00,,---,0.00,0.00,VWS V14.01,2013-02-11 11:25:00,
2013-02-11 05:30:00,23.0,21.0,29.73,NW,306,22.0,31.0,92,0.00,,---,0.00,0.00,VWS V14.01,2013-02-11 11:30:00,
2013-02-11 05:35:00,22.8,20.8,29.73,WNW,296,23.0,27.0,92,0.00,,---,0.00,0.00,VWS V14.01,2013-02-11 11:35:00,
2013-02-11 05:40:00,22.6,20.6,29.73,WNW,295,21.0,27.0,92,0.00,,---,0.00,0.00,VWS V14.01,2013-02-11 11:40:00,
2013-02-11 05:45:00,22.4,20.4,29.73,WNW,282,22.0,28.0,92,0.00,,---,0.00,0.00,VWS V14.01,2013-02-11 11:45:00,
2013-02-11 05:50:00,22.5,20.5,29.73,WNW,300,17.0,26.0,92,0.00,,---,0.00,0.00,VWS V14.01,2013-02-11 11:50:00,
2013-02-11 05:55:00,22.5,20.5,29.74,WNW,295,22.0,29.0,92,0.00,,---,0.00,0.00,VWS V14.01,2013-02-11 11:55:00,
2013-02-11 06:00:00,22.5,20.5,29.74,WNW,296,21.0,32.0,92,0.00,,---,0.00,0.00,VWS V14.01,2013-02-11 12:00:00,
2013-02-11 06:05:00,22.5,20.5,29.75,WNW,299,19.0,29.0,92,0.00,,---,0.00,0.00,VWS V14.01,2013-02-11 12:05:00,
2013-02-11 06:10:00,22.3,20.3,29.74,WNW,299,25.0,30.0,92,0.00,,---,0.00,0.00,VWS V14.01,2013-02-11 12:10:00,
2013-02-11 06:15:00,22.1,20.1,29.75,WNW,288,22.0,30.0,92,0.00,,---,0.00,0.00,VWS V14.01,2013-02-11 12:15:00,
2013-02-11 06:20:00,22.0,20.0,29.76,WNW,292,17.0,26.0,92,0.00,,---,0.00,0.00,VWS V14.01,2013-02-11 12:20:00,
2013-02-11 06:25:00,21.9,19.9,29.76,WNW,296,19.0,26.0,92,0.00,,---,0.00,0.00,VWS V14.01,2013-02-11 12:25:00,
2013-02-11 06:30:00,21.9,19.9,29.77,WNW,287,24.0,27.0,92,0.00,,---,0.00,0.00,VWS V14.01,2013-02-11 12:30:00,
2013-02-11 06:35:00,21.9,19.9,29.78,WNW,290,22.0,27.0,92,0.00,,---,0.00,0.00,VWS V14.01,2013-02-11 12:35:00,
2013-02-11 06:40:00,22.0,20.0,29.78,WNW,288,22.0,29.0,92,0.00,,---,0.00,0.00,VWS V14.01,2013-02-11 12:40:00,
2013-02-11 06:45:00,21.9,19.9,29.78,West,281,24.0,29.0,92,0.00,,---,0.00,0.00,VWS V14.01,2013-02-11 12:45:00,
2013-02-11 06:50:00,21.8,19.8,29.78,WNW,292,19.0,28.0,92,0.00,,---,0.00,0.00,VWS V14.01,2013-02-11 12:50:00,
2013-02-11 06:55:00,21.7,19.7,29.79,WNW,300,22.0,29.0,92,0.00,,---,0.00,0.00,VWS V14.01,2013-02-11 12:55:00,
2013-02-11 07:00:00,21.6,19.6,29.79,WNW,299,19.0,29.0,92,0.00,,---,0.00,0.00,VWS V14.01,2013-02-11 13:00:00,
2013-02-11 07:05:00,21.5,19.5,29.80,WNW,300,25.0,27.0,92,0.00,,---,0.00,0.00,VWS V14.01,2013-02-11 13:05:00,
2013-02-11 07:10:00,21.5,19.5,29.80,WNW,286,22.0,28.0,92,0.00,,---,0.00,0.00,VWS V14.01,2013-02-11 13:10:00,
2013-02-11 07:15:00,21.5,19.5,29.80,WNW,293,21.0,29.0,92,0.00,,---,0.00,0.00,VWS V14.01,2013-02-11 13:15:00,
2013-02-11 07:20:00,21.4,19.4,29.81,WNW,303,26.0,26.0,92,0.00,,---,0.00,0.00,VWS V14.01,2013-02-11 13:20:00,
2013-02-11 07:25:00,21.3,19.3,29.81,WNW,296,21.0,31.0,92,0.00,,---,0.00,5.00,VWS V14.01,2013-02-11 13:25:00,
2013-02-11 07:30:00,21.2,19.2,29.82,WNW,303,19.0,31.0,92,0.00,,---,0.00,7.00,VWS V14.01,2013-02-11 13:30:00,
2013-02-11 07:35:00,21.2,19.2,29.81,West,278,26.0,27.0,92,0.00,,---,0.00,12.00,VWS V14.01,2013-02-11 13:35:00,
2013-02-11 07:40:00,21.1,19.1,29.82,WNW,293,18.0,33.0,92,0.00,,---,0.00,25.00,VWS V14.01,2013-02-11 13:40:00,
2013-02-11 07:45:00,21.0,19.0,29.82,WNW,292,18.0,33.0,92,0.00,,---,0.00,46.00,VWS V14.01,2013-02-11 13:45:00,
2013-02-11 07:50:00,21.0,19.0,29.83,WNW,294,17.0,31.0,92,0.00,,---,0.00,62.00,VWS V14.01,2013-02-11 13:50:00,
2013-02-11 07:55:00,21.1,19.1,29.83,WNW,298,29.0,31.0,92,0.00,,---,0.00,69.00,VWS V14.01,2013-02-11 13:55:00,
2013-02-11 08:00:00,21.1,19.1,29.83,NW,306,24.0,31.0,92,0.00,,---,0.00,81.00,VWS V14.01,2013-02-11 14:00:00,
2013-02-11 08:05:00,21.1,18.9,29.84,WNW,300,21.0,28.0,91,0.00,,---,0.00,104.00,VWS V14.01,2013-02-11 14:05:00,
2013-02-11 08:10:00,21.1,18.9,29.84,WNW,295,19.0,31.0,91,0.00,,---,0.00,91.00,VWS V14.01,2013-02-11 14:10:00,
2013-02-11 08:15:00,21.0,18.8,29.84,WNW,301,29.0,31.0,91,0.00,,---,0.00,69.00,VWS V14.01,2013-02-11 14:15:00,
2013-02-11 08:20:00,21.0,18.8,29.85,WNW,294,25.0,27.0,91,0.00,,---,0.00,77.00,VWS V14.01,2013-02-11 14:20:00,
2013-02-11 08:25:00,20.9,18.7,29.85,WNW,288,21.0,29.0,91,0.00,,---,0.00,72.00,VWS V14.01,2013-02-11 14:25:00,
2013-02-11 08:30:00,20.9,18.7,29.85,WNW,290,24.0,30.0,91,0.00,,---,0.00,51.00,VWS V14.01,2013-02-11 14:30:00,
2013-02-11 08:35:00,20.8,18.6,29.86,WNW,290,21.0,25.0,91,0.00,,---,0.00,63.00,VWS V14.01,2013-02-11 14:35:00,
2013-02-11 08:40:00,20.7,18.5,29.86,WNW,292,24.0,29.0,91,0.00,,---,0.00,74.00,VWS V14.01,2013-02-11 14:40:00,
2013-02-11 08:45:00,20.7,18.5,29.87,WNW,290,24.0,29.0,91,0.00,,---,0.00,97.00,VWS V14.01,2013-02-11 14:45:00,
2013-02-11 08:50:00,20.8,18.6,29.87,WNW,289,26.0,32.0,91,0.00,,---,0.00,97.00,VWS V14.01,2013-02-11 14:50:00,
2013-02-11 08:55:00,20.9,18.7,29.88,WNW,286,25.0,32.0,91,0.00,,---,0.00,118.00,VWS V14.01,2013-02-11 14:55:00,
2013-02-11 09:00:00,20.9,18.7,29.88,West,280,21.0,32.0,91,0.00,,---,0.00,195.00,VWS V14.01,2013-02-11 15:00:00,
2013-02-11 09:05:00,21.0,18.8,29.88,WNW,292,24.0,27.0,91,0.00,,---,0.00,239.00,VWS V14.01,2013-02-11 15:05:00,
2013-02-11 09:10:00,21.2,19.0,29.89,WNW,302,22.0,27.0,91,0.00,,---,0.00,188.00,VWS V14.01,2013-02-11 15:10:00,
2013-02-11 09:15:00,21.4,19.2,29.89,WNW,283,18.0,28.0,91,0.00,,---,0.00,162.00,VWS V14.01,2013-02-11 15:15:00,
2013-02-11 09:20:00,21.6,19.4,29.89,WNW,303,17.0,31.0,91,0.00,,---,0.00,221.00,VWS V14.01,2013-02-11 15:20:00,
2013-02-11 09:25:00,21.7,19.5,29.89,WNW,289,22.0,31.0,91,0.00,,---,0.00,197.00,VWS V14.01,2013-02-11 15:25:00,
2013-02-11 09:30:00,21.8,19.6,29.90,WNW,299,23.0,32.0,91,0.00,,---,0.00,190.00,VWS V14.01,2013-02-11 15:30:00,
2013-02-11 09:35:00,21.9,19.7,29.90,WNW,296,18.0,31.0,91,0.00,,---,0.00,214.00,VWS V14.01,2013-02-11 15:35:00,
2013-02-11 09:40:00,22.0,19.8,29.91,WNW,288,17.0,31.0,91,0.00,,---,0.00,213.00,VWS V14.01,2013-02-11 15:40:00,
2013-02-11 09:46:00,22.0,19.8,29.91,WNW,291,17.0,31.0,91,0.00,,---,0.00,234.00,VWS V14.01,2013-02-11 15:46:00,
2013-02-11 09:51:00,22.1,19.6,29.91,WNW,284,25.0,26.0,90,0.00,,---,0.00,234.00,VWS V14.01,2013-02-11 15:51:00,
2013-02-11 09:56:00,22.0,19.5,29.91,WNW,294,27.0,33.0,90,0.00,,---,0.00,265.00,VWS V14.01,2013-02-11 15:56:00,
2013-02-11 10:01:00,22.0,19.5,29.91,WNW,294,28.0,38.0,90,0.00,,---,0.00,258.00,VWS V14.01,2013-02-11 16:01:00,
2013-02-11 10:06:00,22.0,19.5,29.92,WNW,296,24.0,37.0,90,0.00,,---,0.00,292.00,VWS V14.01,2013-02-11 16:06:00,
2013-02-11 10:11:00,22.0,19.5,29.92,WNW,297,26.0,37.0,90,0.00,,---,0.00,283.00,VWS V14.01,2013-02-11 16:11:00,
2013-02-11 10:16:00,21.9,19.4,29.93,WNW,302,31.0,37.0,90,0.00,,---,0.00,267.00,VWS V14.01,2013-02-11 16:16:00,
2013-02-11 10:21:00,21.9,19.4,29.93,NW,304,26.0,33.0,90,0.00,,---,0.00,388.00,VWS V14.01,2013-02-11 16:21:00,
2013-02-11 10:26:00,22.0,19.5,29.93,NW,307,26.0,33.0,90,0.00,,---,0.00,308.00,VWS V14.01,2013-02-11 16:26:00,
2013-02-11 10:31:00,22.0,19.5,29.93,WNW,292,21.0,33.0,90,0.00,,---,0.00,255.00,VWS V14.01,2013-02-11 16:31:00,
2013-02-11 10:36:00,22.0,19.5,29.94,WNW,290,23.0,31.0,90,0.00,,---,0.00,274.00,VWS V14.01,2013-02-11 16:36:00,
2013-02-11 10:41:00,21.9,19.4,29.94,WNW,288,32.0,33.0,90,0.00,,---,0.00,262.00,VWS V14.01,2013-02-11 16:41:00,
2013-02-11 10:46:00,22.0,19.5,29.95,WNW,296,19.0,33.0,90,0.00,,---,0.00,265.00,VWS V14.01,2013-02-11 16:46:00,
2013-02-11 10:51:00,22.0,19.5,29.95,WNW,284,29.0,29.0,90,0.00,,---,0.00,292.00,VWS V14.01,2013-02-11 16:51:00,
2013-02-11 10:56:00,22.0,19.5,29.95,WNW,291,26.0,33.0,90,0.00,,---,0.00,288.00,VWS V14.01,2013-02-11 16:56:00,
2013-02-11 11:01:00,21.9,19.2,29.95,WNW,298,21.0,36.0,89,0.00,,---,0.00,272.00,VWS V14.01,2013-02-11 17:01:00,
2013-02-11 11:06:00,22.0,19.3,29.95,WNW,284,21.0,30.0,89,0.00,,---,0.00,267.00,VWS V14.01,2013-02-11 17:06:00,
2013-02-11 11:11:00,22.0,19.5,29.95,WNW,302,21.0,33.0,90,0.00,,---,0.00,276.00,VWS V14.01,2013-02-11 17:11:00,
2013-02-11 11:16:00,22.0,19.3,29.96,NW,305,25.0,33.0,89,0.00,,---,0.00,287.00,VWS V14.01,2013-02-11 17:16:00,
2013-02-11 11:21:00,22.1,19.4,29.96,WNW,296,17.0,31.0,89,0.00,,---,0.00,292.00,VWS V14.01,2013-02-11 17:21:00,
2013-02-11 11:26:00,22.1,19.6,29.97,NW,304,22.0,31.0,90,0.00,,---,0.00,301.00,VWS V14.01,2013-02-11 17:26:00,
2013-02-11 11:31:00,22.1,19.4,29.97,WNW,298,27.0,33.0,89,0.00,,---,0.00,332.00,VWS V14.01,2013-02-11 17:31:00,
2013-02-11 11:36:00,22.2,19.5,29.97,WNW,299,22.0,32.0,89,0.00,,---,0.00,334.00,VWS V14.01,2013-02-11 17:36:00,
2013-02-11 11:41:00,22.3,19.6,29.97,WNW,292,21.0,32.0,89,0.00,,---,0.00,311.00,VWS V14.01,2013-02-11 17:41:00,
2013-02-11 11:46:00,22.4,19.7,29.97,WNW,284,19.0,32.0,89,0.00,,---,0.00,316.00,VWS V14.01,2013-02-11 17:46:00,
2013-02-11 11:51:00,22.4,19.7,29.97,WNW,290,23.0,30.0,89,0.00,,---,0.00,308.00,VWS V14.01,2013-02-11 17:51:00,
2013-02-11 11:56:00,22.4,19.7,29.97,West,275,30.0,30.0,89,0.00,,---,0.00,295.00,VWS V14.01,2013-02-11 17:56:00,
2013-02-11 12:01:00,22.5,20.0,29.98,WNW,288,19.0,30.0,90,0.00,,---,0.00,283.00,VWS V14.01,2013-02-11 18:01:00,
2013-02-11 12:06:00,22.5,20.0,29.98,WNW,294,22.0,30.0,90,0.00,,---,0.00,283.00,VWS V14.01,2013-02-11 18:06:00,
2013-02-11 12:11:00,22.5,20.0,29.98,WNW,294,27.0,31.0,90,0.00,,---,0.00,281.00,VWS V14.01,2013-02-11 18:11:00,
2013-02-11 12:16:00,22.4,19.9,29.98,WNW,290,25.0,31.0,90,0.00,,---,0.00,294.00,VWS V14.01,2013-02-11 18:16:00,
2013-02-11 12:21:00,22.5,20.0,29.98,WNW,295,24.0,26.0,90,0.00,,---,0.00,294.00,VWS V14.01,2013-02-11 18:21:00,
2013-02-11 12:26:00,22.5,20.0,29.98,WNW,293,22.0,28.0,90,0.00,,---,0.00,308.00,VWS V14.01,2013-02-11 18:26:00,
2013-02-11 12:31:00,22.5,19.8,29.98,WNW,289,24.0,29.0,89,0.00,,---,0.00,309.00,VWS V14.01,2013-02-11 18:31:00,
2013-02-11 12:36:00,22.4,19.9,29.98,WNW,290,26.0,28.0,90,0.00,,---,0.00,288.00,VWS V14.01,2013-02-11 18:36:00,
2013-02-11 12:41:00,22.3,19.8,29.98,West,277,28.0,32.0,90,0.00,,---,0.00,274.00,VWS V14.01,2013-02-11 18:41:00,
2013-02-11 12:46:00,22.2,19.7,29.99,WNW,291,21.0,32.0,90,0.00,,---,0.00,295.00,VWS V14.01,2013-02-11 18:46:00,
2013-02-11 12:51:00,22.2,19.7,29.99,West,280,21.0,28.0,90,0.00,,---,0.00,313.00,VWS V14.01,2013-02-11 18:51:00,
2013-02-11 12:56:00,22.2,19.7,29.99,WNW,290,21.0,28.0,90,0.00,,---,0.00,325.00,VWS V14.01,2013-02-11 18:56:00,
2013-02-11 13:01:00,22.1,19.6,29.99,WNW,286,24.0,29.0,90,0.00,,---,0.00,343.00,VWS V14.01,2013-02-11 19:01:00,
2013-02-11 13:06:00,22.0,19.3,29.99,WNW,295,25.0,32.0,89,0.00,,---,0.00,325.00,VWS V14.01,2013-02-11 19:06:00,
2013-02-11 13:11:00,22.0,19.3,30.00,WNW,295,26.0,32.0,89,0.00,,---,0.00,341.00,VWS V14.01,2013-02-11 19:11:00,
2013-02-11 13:16:00,22.1,19.4,30.00,NW,311,21.0,32.0,89,0.00,,---,0.00,325.00,VWS V14.01,2013-02-11 19:16:00,
2013-02-11 13:21:00,22.1,19.4,30.00,WNW,297,21.0,28.0,89,0.00,,---,0.00,315.00,VWS V14.01,2013-02-11 19:21:00,
2013-02-11 13:26:00,22.1,19.4,30.00,WNW,289,22.0,28.0,89,0.00,,---,0.00,301.00,VWS V14.01,2013-02-11 19:26:00,
2013-02-11 13:31:00,22.0,19.3,30.00,WNW,290,26.0,29.0,89,0.00,,---,0.00,285.00,VWS V14.01,2013-02-11 19:31:00,
2013-02-11 13:36:00,22.0,19.3,30.00,WNW,291,25.0,25.0,89,0.00,,---,0.00,269.00,VWS V14.01,2013-02-11 19:36:00,
2013-02-11 13:41:00,21.9,19.2,30.00,WNW,294,27.0,33.0,89,0.00,,---,0.00,278.00,VWS V14.01,2013-02-11 19:41:00,
2013-02-11 13:46:00,21.9,19.2,30.00,WNW,301,27.0,33.0,89,0.00,,---,0.00,297.00,VWS V14.01,2013-02-11 19:46:00,
2013-02-11 13:51:00,21.9,19.2,30.00,WNW,298,21.0,30.0,89,0.00,,---,0.00,290.00,VWS V14.01,2013-02-11 19:51:00,
2013-02-11 13:56:00,21.8,18.8,30.00,WNW,290,21.0,30.0,88,0.00,,---,0.00,297.00,VWS V14.01,2013-02-11 19:56:00,
2013-02-11 14:01:00,21.8,18.8,30.00,WNW,290,30.0,30.0,88,0.00,,---,0.00,308.00,VWS V14.01,2013-02-11 20:01:00,
2013-02-11 14:06:00,21.7,18.7,30.00,WNW,290,20.0,29.0,88,0.00,,---,0.00,306.00,VWS V14.01,2013-02-11 20:06:00,
2013-02-11 14:11:00,21.7,18.7,30.01,WNW,300,23.0,29.0,88,0.00,,---,0.00,323.00,VWS V14.01,2013-02-11 20:11:00,
2013-02-11 14:16:00,21.7,18.7,30.01,WNW,283,23.0,29.0,88,0.00,,---,0.00,304.00,VWS V14.01,2013-02-11 20:16:00,
2013-02-11 14:21:00,21.5,18.8,30.01,WNW,284,25.0,28.0,89,0.00,,---,0.00,290.00,VWS V14.01,2013-02-11 20:21:00,
2013-02-11 14:26:00,21.4,18.7,30.01,WNW,282,23.0,28.0,89,0.00,,---,0.00,292.00,VWS V14.01,2013-02-11 20:26:00,
2013-02-11 14:31:00,21.3,18.6,30.02,WNW,295,21.0,28.0,89,0.00,,---,0.00,306.00,VWS V14.01,2013-02-11 20:31:00,
2013-02-11 14:36:00,21.3,18.6,30.02,WNW,287,21.0,30.0,89,0.00,,---,0.00,309.00,VWS V14.01,2013-02-11 20:36:00,
2013-02-11 14:41:00,21.3,18.3,30.02,WNW,288,22.0,34.0,88,0.00,,---,0.00,385.00,VWS V14.01,2013-02-11 20:41:00,
2013-02-11 14:46:00,21.2,17.9,30.03,WNW,300,24.0,34.0,87,0.00,,---,0.00,276.00,VWS V14.01,2013-02-11 20:46:00,
2013-02-11 14:51:00,21.2,17.9,30.03,West,280,28.0,31.0,87,0.00,,---,0.00,250.00,VWS V14.01,2013-02-11 20:51:00,
2013-02-11 14:56:00,21.2,17.9,30.03,WNW,295,19.0,31.0,87,0.00,,---,0.00,338.00,VWS V14.01,2013-02-11 20:56:00,
2013-02-11 15:01:00,21.3,18.3,30.03,WNW,287,21.0,31.0,88,0.00,,---,0.00,244.00,VWS V14.01,2013-02-11 21:01:00,
2013-02-11 15:06:00,21.4,18.4,30.04,WNW,287,26.0,26.0,88,0.00,,---,0.00,257.00,VWS V14.01,2013-02-11 21:06:00,
2013-02-11 15:11:00,21.4,18.4,30.04,WNW,300,24.0,28.0,88,0.00,,---,0.00,271.00,VWS V14.01,2013-02-11 21:11:00,
2013-02-11 15:16:00,21.3,18.0,30.04,WNW,299,28.0,30.0,87,0.00,,---,0.00,221.00,VWS V14.01,2013-02-11 21:16:00,
2013-02-11 15:21:00,21.3,18.0,30.04,WNW,287,30.0,30.0,87,0.00,,---,0.00,218.00,VWS V14.01,2013-02-11 21:21:00,
2013-02-11 15:26:00,21.2,17.7,30.05,WNW,291,21.0,33.0,86,0.00,,---,0.00,221.00,VWS V14.01,2013-02-11 21:26:00,
2013-02-11 15:31:00,21.2,17.7,30.05,WNW,296,17.0,33.0,86,0.00,,---,0.00,181.00,VWS V14.01,2013-02-11 21:31:00,
2013-02-11 15:36:00,21.3,18.0,30.05,WNW,294,21.0,28.0,87,0.00,,---,0.00,169.00,VWS V14.01,2013-02-11 21:36:00,
2013-02-11 15:41:00,21.3,18.0,30.05,WNW,288,19.0,28.0,87,0.00,,---,0.00,158.00,VWS V14.01,2013-02-11 21:41:00,
2013-02-11 15:46:00,21.3,18.0,30.05,WNW,300,24.0,28.0,87,0.00,,---,0.00,144.00,VWS V14.01,2013-02-11 21:46:00,
2013-02-11 15:51:00,21.3,18.0,30.05,WNW,290,22.0,26.0,87,0.00,,---,0.00,144.00,VWS V14.01,2013-02-11 21:51:00,
2013-02-11 15:56:00,21.3,18.0,30.05,WNW,299,21.0,28.0,87,0.00,,---,0.00,155.00,VWS V14.01,2013-02-11 21:56:00,
2013-02-11 16:01:00,21.3,18.0,30.06,WNW,288,21.0,28.0,87,0.00,,---,0.00,141.00,VWS V14.01,2013-02-11 22:01:00,
2013-02-11 16:06:00,21.4,18.1,30.06,WNW,290,23.0,29.0,87,0.00,,---,0.00,132.00,VWS V14.01,2013-02-11 22:06:00,
2013-02-11 16:11:00,21.3,18.0,30.06,West,281,22.0,29.0,87,0.00,,---,0.00,116.00,VWS V14.01,2013-02-11 22:11:00,
2013-02-11 16:16:00,21.3,18.0,30.06,WNW,290,19.0,29.0,87,0.00,,---,0.00,111.00,VWS V14.01,2013-02-11 22:16:00,
2013-02-11 16:21:00,21.3,18.0,30.06,WNW,292,21.0,24.0,87,0.00,,---,0.00,98.00,VWS V14.01,2013-02-11 22:21:00,
2013-02-11 16:26:00,21.3,18.0,30.06,WNW,298,19.0,28.0,87,0.00,,---,0.00,83.00,VWS V14.01,2013-02-11 22:26:00,
2013-02-11 16:31:00,21.2,17.9,30.06,NW,307,21.0,28.0,87,0.00,,---,0.00,69.00,VWS V14.01,2013-02-11 22:31:00,
2013-02-11 16:36:00,21.2,17.9,30.06,NW,306,23.0,25.0,87,0.00,,---,0.00,56.00,VWS V14.01,2013-02-11 22:36:00,
2013-02-11 16:41:00,20.9,17.6,30.07,NW,311,22.0,30.0,87,0.00,,---,0.00,58.00,VWS V14.01,2013-02-11 22:41:00,
2013-02-11 16:46:00,20.7,17.5,30.07,WNW,299,21.0,30.0,87,0.00,,---,0.00,53.00,VWS V14.01,2013-02-11 22:46:00,
2013-02-11 16:51:00,20.7,17.5,30.07,NW,306,21.0,24.0,87,0.00,,---,0.00,42.00,VWS V14.01,2013-02-11 22:51:00,
2013-02-11 16:56:00,20.6,17.4,30.07,WNW,300,27.0,29.0,87,0.00,,---,0.00,33.00,VWS V14.01,2013-02-11 22:56:00,
2013-02-11 17:01:00,20.6,17.4,30.08,WNW,299,19.0,29.0,87,0.00,,---,0.00,30.00,VWS V14.01,2013-02-11 23:01:00,
2013-02-11 17:06:00,20.5,17.2,30.07,WNW,296,18.0,21.0,87,0.00,,---,0.00,32.00,VWS V14.01,2013-02-11 23:06:00,
2013-02-11 17:11:00,20.6,17.4,30.08,NW,305,15.0,21.0,87,0.00,,---,0.00,32.00,VWS V14.01,2013-02-11 23:11:00,
2013-02-11 17:16:00,20.6,17.6,30.08,NW,306,18.0,21.0,88,0.00,,---,0.00,23.00,VWS V14.01,2013-02-11 23:16:00,
2013-02-11 17:21:00,20.7,17.7,30.07,WNW,296,12.0,17.0,88,0.00,,---,0.00,14.00,VWS V14.01,2013-02-11 23:21:00,
2013-02-11 17:26:00,20.6,17.4,30.07,WNW,290,16.0,20.0,87,0.00,,---,0.00,12.00,VWS V14.01,2013-02-11 23:26:00,
2013-02-11 17:31:00,20.6,17.4,30.08,WNW,288,20.0,25.0,87,0.00,,---,0.00,11.00,VWS V14.01,2013-02-11 23:31:00,
2013-02-11 17:36:00,20.5,17.2,30.08,WNW,300,16.0,23.0,87,0.00,,---,0.00,7.00,VWS V14.01,2013-02-11 23:36:00,
2013-02-11 17:41:00,20.4,17.2,30.08,WNW,298,15.0,23.0,87,0.00,,---,0.00,5.00,VWS V14.01,2013-02-11 23:41:00,
2013-02-11 17:46:00,20.4,16.9,30.08,WNW,295,9.0,23.0,86,0.00,,---,0.00,0.00,VWS V14.01,2013-02-11 23:46:00,
2013-02-11 17:51:00,20.4,16.9,30.07,WNW,294,12.0,17.0,86,0.00,,---,0.00,0.00,VWS V14.01,2013-02-11 23:51:00,
2013-02-11 17:56:00,20.3,17.1,30.07,WNW,294,16.0,19.0,87,0.00,,---,0.00,0.00,VWS V14.01,2013-02-11 23:56:00,
2013-02-11 18:01:00,20.3,17.1,30.07,WNW,294,13.0,23.0,87,0.00,,---,0.00,0.00,VWS V14.01,2013-02-12 00:01:00,
2013-02-11 18:06:00,20.3,17.1,30.08,WNW,296,13.0,19.0,87,0.00,,---,0.00,0.00,VWS V14.01,2013-02-12 00:06:00,
2013-02-11 18:11:00,20.4,17.2,30.08,WNW,294,9.0,19.0,87,0.00,,---,0.00,0.00,VWS V14.01,2013-02-12 00:11:00,
2013-02-11 18:16:00,20.4,17.2,30.08,WNW,296,10.0,19.0,87,0.00,,---,0.00,0.00,VWS V14.01,2013-02-12 00:16:00,
2013-02-11 18:21:00,20.5,17.2,30.09,WNW,290,17.0,18.0,87,0.00,,---,0.00,0.00,VWS V14.01,2013-02-12 00:21:00,
2013-02-11 18:26:00,20.6,17.6,30.09,WNW,302,15.0,18.0,88,0.00,,---,0.00,0.00,VWS V14.01,2013-02-12 00:26:00,
2013-02-11 18:31:00,20.6,17.4,30.09,WNW,299,11.0,20.0,87,0.00,,---,0.00,0.00,VWS V14.01,2013-02-12 00:31:00,
2013-02-11 18:36:00,20.7,17.7,30.09,WNW,292,17.0,18.0,88,0.00,,---,0.00,0.00,VWS V14.01,2013-02-12 00:36:00,
2013-02-11 18:41:00,20.7,17.5,30.09,WNW,292,13.0,20.0,87,0.00,,---,0.00,0.00,VWS V14.01,2013-02-12 00:41:00,
2013-02-11 18:46:00,20.7,17.5,30.09,WNW,286,19.0,22.0,87,0.00,,---,0.00,0.00,VWS V14.01,2013-02-12 00:46:00,
2013-02-11 18:51:00,20.8,17.5,30.09,WNW,295,15.0,19.0,87,0.00,,---,0.00,0.00,VWS V14.01,2013-02-12 00:51:00,
2013-02-11 18:56:00,20.8,17.5,30.09,WNW,283,16.0,22.0,87,0.00,,---,0.00,0.00,VWS V14.01,2013-02-12 00:56:00,
2013-02-11 19:01:00,20.8,17.3,30.09,WNW,292,14.0,22.0,86,0.00,,---,0.00,0.00,VWS V14.01,2013-02-12 01:01:00,
2013-02-11 19:06:00,20.8,17.3,30.09,WNW,299,15.0,17.0,86,0.00,,---,0.00,0.00,VWS V14.01,2013-02-12 01:06:00,
2013-02-11 19:11:00,20.9,17.4,30.09,WNW,300,13.0,20.0,86,0.00,,---,0.00,0.00,VWS V14.01,2013-02-12 01:11:00,
2013-02-11 19:16:00,20.9,17.4,30.09,WNW,290,11.0,20.0,86,0.00,,---,0.00,0.00,VWS V14.01,2013-02-12 01:16:00,
2013-02-11 19:21:00,20.9,17.4,30.09,WNW,284,14.0,18.0,86,0.00,,---,0.00,0.00,VWS V14.01,2013-02-12 01:21:00,
2013-02-11 19:26:00,20.9,17.6,30.09,WNW,288,16.0,19.0,87,0.00,,---,0.00,0.00,VWS V14.01,2013-02-12 01:26:00,
2013-02-11 19:31:00,20.9,17.6,30.09,WNW,285,16.0,19.0,87,0.00,,---,0.00,0.00,VWS V14.01,2013-02-12 01:31:00,
2013-02-11 19:36:00,20.9,17.6,30.10,WNW,287,12.0,18.0,87,0.00,,---,0.00,0.00,VWS V14.01,2013-02-12 01:36:00,
2013-02-11 19:41:00,20.9,17.6,30.10,WNW,288,9.0,18.0,87,0.00,,---,0.00,0.00,VWS V14.01,2013-02-12 01:41:00,
2013-02-11 19:46:00,20.9,17.6,30.10,WNW,288,15.0,18.0,87,0.00,,---,0.00,0.00,VWS V14.01,2013-02-12 01:46:00,
2013-02-11 19:51:00,20.9,17.6,30.10,WNW,294,9.0,15.0,87,0.00,,---,0.00,0.00,VWS V14.01,2013-02-12 01:51:00,
2013-02-11 19:56:00,20.9,17.6,30.10,WNW,290,11.0,15.0,87,0.00,,---,0.00,0.00,VWS V14.01,2013-02-12 01:56:00,
2013-02-11 20:01:00,20.9,17.6,30.10,WNW,287,9.0,15.0,87,0.00,,---,0.00,0.00,VWS V14.01,2013-02-12 02:01:00,
2013-02-11 20:06:00,20.9,17.6,30.10,WNW,291,10.0,12.0,87,0.00,,---,0.00,0.00,VWS V14.01,2013-02-12 02:06:00,
2013-02-11 20:11:00,20.9,17.6,30.11,WNW,295,10.0,14.0,87,0.00,,---,0.00,0.00,VWS V14.01,2013-02-12 02:11:00,
2013-02-11 20:16:00,20.9,17.6,30.11,WNW,286,12.0,15.0,87,0.00,,---,0.00,0.00,VWS V14.01,2013-02-12 02:16:00,
2013-02-11 20:21:00,20.9,17.6,30.10,WNW,291,15.0,15.0,87,0.00,,---,0.00,0.00,VWS V14.01,2013-02-12 02:21:00,
2013-02-11 20:26:00,20.9,17.6,30.11,WNW,288,9.0,15.0,87,0.00,,---,0.00,0.00,VWS V14.01,2013-02-12 02:26:00,
2013-02-11 20:31:00,20.9,17.6,30.10,WNW,294,10.0,15.0,87,0.00,,---,0.00,0.00,VWS V14.01,2013-02-12 02:31:00,
2013-02-11 20:36:00,20.8,17.5,30.10,WNW,282,11.0,13.0,87,0.00,,---,0.00,0.00,VWS V14.01,2013-02-12 02:36:00,
2013-02-11 20:41:00,20.8,17.5,30.11,WNW,286,11.0,13.0,87,0.00,,---,0.00,0.00,VWS V14.01,2013-02-12 02:41:00,
2013-02-11 20:46:00,20.7,17.5,30.11,WNW,287,8.0,14.0,87,0.00,,---,0.00,0.00,VWS V14.01,2013-02-12 02:46:00,
2013-02-11 20:51:00,20.7,17.5,30.10,WNW,284,10.0,12.0,87,0.00,,---,0.00,0.00,VWS V14.01,2013-02-12 02:51:00,
2013-02-11 20:56:00,20.7,17.7,30.11,West,281,11.0,13.0,88,0.00,,---,0.00,0.00,VWS V14.01,2013-02-12 02:56:00,
2013-02-11 21:01:00,20.7,17.7,30.11,WNW,284,10.0,13.0,88,0.00,,---,0.00,0.00,VWS V14.01,2013-02-12 03:01:00,
2013-02-11 21:06:00,20.7,17.5,30.10,WNW,287,11.0,14.0,87,0.00,,---,0.00,0.00,VWS V14.01,2013-02-12 03:06:00,
2013-02-11 21:11:00,20.7,17.5,30.10,WNW,288,13.0,14.0,87,0.00,,---,0.00,0.00,VWS V14.01,2013-02-12 03:11:00,
2013-02-11 21:16:00,20.7,17.5,30.10,WNW,284,14.0,15.0,87,0.00,,---,0.00,0.00,VWS V14.01,2013-02-12 03:16:00,
2013-02-11 21:21:00,20.7,17.5,30.10,West,277,12.0,16.0,87,0.00,,---,0.00,0.00,VWS V14.01,2013-02-12 03:21:00,
2013-02-11 21:26:00,20.6,17.4,30.11,WNW,284,10.0,16.0,87,0.00,,---,0.00,0.00,VWS V14.01,2013-02-12 03:26:00,
2013-02-11 21:31:00,20.6,17.4,30.11,West,279,9.0,16.0,87,0.00,,---,0.00,0.00,VWS V14.01,2013-02-12 03:31:00,
2013-02-11 21:36:00,20.5,17.2,30.11,West,281,10.0,13.0,87,0.00,,---,0.00,0.00,VWS V14.01,2013-02-12 03:36:00,
2013-02-11 21:41:00,20.5,17.2,30.11,WNW,284,10.0,15.0,87,0.00,,---,0.00,0.00,VWS V14.01,2013-02-12 03:41:00,
2013-02-11 21:46:00,20.4,17.2,30.11,West,275,10.0,15.0,87,0.00,,---,0.00,0.00,VWS V14.01,2013-02-12 03:46:00,
2013-02-11 21:51:00,20.3,17.1,30.11,West,275,12.0,13.0,87,0.00,,---,0.00,0.00,VWS V14.01,2013-02-12 03:51:00,
2013-02-11 21:56:00,20.3,17.1,30.11,West,280,12.0,13.0,87,0.00,,---,0.00,0.00,VWS V14.01,2013-02-12 03:56:00,
2013-02-11 22:01:00,20.3,17.1,30.12,West,275,10.0,15.0,87,0.00,,---,0.00,0.00,VWS V14.01,2013-02-12 04:01:00,
2013-02-11 22:06:00,20.2,17.0,30.12,West,272,7.0,12.0,87,0.00,,---,0.00,0.00,VWS V14.01,2013-02-12 04:06:00,
2013-02-11 22:11:00,20.2,17.0,30.12,West,272,10.0,14.0,87,0.00,,---,0.00,0.00,VWS V14.01,2013-02-12 04:11:00,
2013-02-11 22:16:00,20.1,16.9,30.12,West,265,8.0,14.0,87,0.00,,---,0.00,0.00,VWS V14.01,2013-02-12 04:16:00,
2013-02-11 22:21:00,20.0,16.8,30.12,West,277,10.0,13.0,87,0.00,,---,0.00,0.00,VWS V14.01,2013-02-12 04:21:00,
2013-02-11 22:26:00,19.9,16.7,30.12,West,271,13.0,13.0,87,0.00,,---,0.00,0.00,VWS V14.01,2013-02-12 04:26:00,
2013-02-11 22:31:00,19.7,16.5,30.12,West,267,6.0,14.0,87,0.00,,---,0.00,0.00,VWS V14.01,2013-02-12 04:31:00,
2013-02-11 22:36:00,19.7,16.5,30.12,West,268,10.0,12.0,87,0.00,,---,0.00,0.00,VWS V14.01,2013-02-12 04:36:00,
2013-02-11 22:41:00,19.7,16.5,30.12,West,271,13.0,15.0,87,0.00,,---,0.00,0.00,VWS V14.01,2013-02-12 04:41:00,
2013-02-11 22:46:00,19.5,16.3,30.12,West,260,8.0,15.0,87,0.00,,---,0.00,0.00,VWS V14.01,2013-02-12 04:46:00,
2013-02-11 22:51:00,19.4,16.2,30.12,West,273,15.0,15.0,87,0.00,,---,0.00,0.00,VWS V14.01,2013-02-12 04:51:00,
2013-02-11 22:56:00,19.3,16.1,30.12,West,264,5.0,16.0,87,0.00,,---,0.00,0.00,VWS V14.01,2013-02-12 04:56:00,
2013-02-11 23:00:00,19.2,16.0,30.12,West,268,10.0,16.0,87,0.00,,---,0.00,0.00,VWS V14.01,2013-02-12 05:00:00,
2013-02-11 23:05:00,19.1,15.9,30.12,West,261,12.0,14.0,87,0.00,,---,0.00,0.00,VWS V14.01,2013-02-12 05:05:00,
2013-02-11 23:10:00,19.0,15.8,30.12,West,265,10.0,14.0,87,0.00,,---,0.00,0.00,VWS V14.01,2013-02-12 05:10:00,
2013-02-11 23:15:00,18.9,15.7,30.12,West,273,12.0,15.0,87,0.00,,---,0.00,0.00,VWS V14.01,2013-02-12 05:15:00,
2013-02-11 23:20:00,18.9,15.7,30.12,West,268,11.0,13.0,87,0.00,,---,0.00,0.00,VWS V14.01,2013-02-12 05:20:00,
2013-02-11 23:25:00,18.8,15.6,30.12,West,269,11.0,13.0,87,0.00,,---,0.00,0.00,VWS V14.01,2013-02-12 05:25:00,
2013-02-11 23:30:00,18.7,15.5,30.12,West,271,11.0,14.0,87,0.00,,---,0.00,0.00,VWS V14.01,2013-02-12 05:30:00,
2013-02-11 23:35:00,18.6,15.4,30.12,West,275,10.0,13.0,87,0.00,,---,0.00,0.00,VWS V14.01,2013-02-12 05:35:00,
2013-02-11 23:40:00,18.6,15.4,30.12,West,277,11.0,16.0,87,0.00,,---,0.00,0.00,VWS V14.01,2013-02-12 05:40:00,
2013-02-11 23:45:00,18.6,15.4,30.12,West,278,14.0,16.0,87,0.00,,---,0.00,0.00,VWS V14.01,2013-02-12 05:45:00,
2013-02-11 23:50:00,18.5,15.3,30.12,West,278,10.0,12.0,87,0.00,,---,0.00,0.00,VWS V14.01,2013-02-12 05:50:00,
2013-02-11 23:55:00,18.4,15.2,30.12,West,279,9.0,12.0,87,0.00,,---,0.00,0.00,VWS V14.01,2013-02-12 05:55:00,